Time,TemperatureF,DewpointF,PressureIn,WindDirection,WindDirectionDegrees,WindSpeedMPH,WindSpeedGustMPH,Humidity,HourlyPrecipIn,Conditions,Clouds,dailyrainin,SoftwareType,DateUTC
2013-09-23 05:57:00,57.7,54.0,29.98,West,272,0.0,0.0,87,0.00,,,0.00,weatherlink.com 1.10,2013-09-23 09:57:00,
2013-09-23 06:13:00,57.1,54.0,30.00,West,272,0.0,0.0,88,0.00,,,0.00,weatherlink.com 1.10,2013-09-23 10:13:00,
2013-09-23 06:28:00,56.6,53.0,30.00,West,272,0.0,0.0,88,0.00,,,0.00,weatherlink.com 1.10,2013-09-23 10:28:00,
2013-09-23 06:43:00,56.1,53.0,30.01,West,272,0.0,0.0,89,0.00,,,0.00,weatherlink.com 1.10,2013-09-23 10:43:00,
2013-09-23 06:58:00,55.8,53.0,30.01,West,272,0.0,0.0,90,0.00,,,0.00,weatherlink.com 1.10,2013-09-23 10:58:00,
2013-09-23 07:13:00,55.6,53.0,30.02,West,272,0.0,0.0,90,0.00,,,0.00,weatherlink.com 1.10,2013-09-23 11:13:00,
2013-09-23 07:28:00,55.5,53.0,30.02,West,272,0.0,0.0,90,0.00,,,0.00,weatherlink.com 1.10,2013-09-23 11:28:00,
2013-09-23 07:43:00,55.8,53.0,30.04,West,272,0.0,0.0,91,0.00,,,0.00,weatherlink.com 1.10,2013-09-23 11:43:00,
2013-09-23 07:58:00,56.4,54.0,30.04,West,272,0.0,0.0,91,0.00,,,0.00,weatherlink.com 1.10,2013-09-23 11:58:00,
2013-09-23 08:13:00,57.1,55.0,30.05,West,272,0.0,0.0,91,0.00,,,0.00,weatherlink.com 1.10,2013-09-23 12:13:00,
2013-09-23 08:28:00,58.0,55.0,30.05,NW,315,0.0,2.0,89,0.00,,,0.00,weatherlink.com 1.10,2013-09-23 12:28:00,
2013-09-23 08:43:00,58.9,55.0,30.06,WSW,241,0.0,2.0,86,0.00,,,0.00,weatherlink.com 1.10,2013-09-23 12:43:00,
2013-09-23 08:58:00,59.7,55.0,30.07,SSW,192,0.0,3.0,85,0.00,,,0.00,weatherlink.com 1.10,2013-09-23 12:58:00,
2013-09-23 09:13:00,60.5,55.0,30.07,WSW,254,0.0,3.0,83,0.00,,,0.00,weatherlink.com 1.10,2013-09-23 13:13:00,
2013-09-23 09:28:00,61.2,56.0,30.07,WSW,247,0.0,2.0,82,0.00,,,0.00,weatherlink.com 1.10,2013-09-23 13:28:00,
2013-09-23 09:43:00,62.1,56.0,30.07,NNW,333,1.0,8.0,80,0.00,,,0.00,weatherlink.com 1.10,2013-09-23 13:43:00,
2013-09-23 09:58:00,62.8,55.0,30.07,East,91,2.0,4.0,76,0.00,,,0.00,weatherlink.com 1.10,2013-09-23 13:58:00,
2013-09-23 10:13:00,64.0,56.0,30.07,SSE,150,0.0,5.0,76,0.00,,,0.00,weatherlink.com 1.10,2013-09-23 14:13:00,
2013-09-23 10:28:00,65.4,57.0,30.07,SE,132,3.0,4.0,73,0.00,,,0.00,weatherlink.com 1.10,2013-09-23 14:28:00,
2013-09-23 10:43:00,66.6,56.0,30.07,ESE,112,0.0,7.0,69,0.00,,,0.00,weatherlink.com 1.10,2013-09-23 14:43:00,
2013-09-23 10:58:00,66.7,56.0,30.07,SE,136,1.0,7.0,69,0.00,,,0.00,weatherlink.com 1.10,2013-09-23 14:58:00,
2013-09-23 11:13:00,67.8,57.0,30.07,SSE,157,0.0,2.0,68,0.00,,,0.00,weatherlink.com 1.10,2013-09-23 15:13:00,
2013-09-23 11:28:00,69.2,58.0,30.07,WNW,284,0.0,4.0,67,0.00,,,0.00,weatherlink.com 1.10,2013-09-23 15:28:00,
2013-09-23 11:44:00,70.1,58.0,30.07,SE,124,0.0,4.0,65,0.00,,,0.00,weatherlink.com 1.10,2013-09-23 15:44:00,
2013-09-23 11:59:00,70.6,57.0,30.07,ESE,121,2.0,3.0,62,0.00,,,0.00,weatherlink.com 1.10,2013-09-23 15:59:00,
2013-09-23 12:14:00,70.5,58.0,30.07,SE,132,1.0,5.0,65,0.00,,,0.00,weatherlink.com 1.10,2013-09-23 16:14:00,
2013-09-23 12:29:00,70.6,59.0,30.07,SSE,157,0.0,4.0,66,0.00,,,0.00,weatherlink.com 1.10,2013-09-23 16:29:00,
2013-09-23 12:44:00,70.5,58.0,30.06,East,85,2.0,5.0,64,0.00,,,0.00,weatherlink.com 1.10,2013-09-23 16:44:00,
2013-09-23 12:59:00,70.6,57.0,30.06,SSE,159,1.0,3.0,63,0.00,,,0.00,weatherlink.com 1.10,2013-09-23 16:59:00,
2013-09-23 13:14:00,71.2,57.0,30.06,NNW,329,0.0,6.0,62,0.00,,,0.00,weatherlink.com 1.10,2013-09-23 17:14:00,
2013-09-23 13:29:00,71.3,59.0,30.06,SSE,151,0.0,3.0,65,0.00,,,0.00,weatherlink.com 1.10,2013-09-23 17:29:00,
2013-09-23 13:44:00,70.7,58.0,30.06,SSE,148,0.0,3.0,65,0.00,,,0.00,weatherlink.com 1.10,2013-09-23 17:44:00,
2013-09-23 13:59:00,71.5,60.0,30.05,SE,128,1.0,3.0,67,0.00,,,0.00,weatherlink.com 1.10,2013-09-23 17:59:00,
2013-09-23 14:14:00,73.5,60.0,30.05,East,82,1.0,3.0,62,0.00,,,0.00,weatherlink.com 1.10,2013-09-23 18:14:00,
2013-09-23 14:29:00,73.6,58.0,30.05,ENE,63,1.0,6.0,58,0.00,,,0.00,weatherlink.com 1.10,2013-09-23 18:29:00,
2013-09-23 14:44:00,71.6,57.0,30.05,NNW,333,0.0,4.0,61,0.00,,,0.00,weatherlink.com 1.10,2013-09-23 18:44:00,
2013-09-23 14:59:00,71.8,59.0,30.05,NW,315,1.0,1.0,65,0.00,,,0.00,weatherlink.com 1.10,2013-09-23 18:59:00,
2013-09-23 15:14:00,73.9,60.0,30.04,ESE,113,0.0,3.0,62,0.00,,,0.00,weatherlink.com 1.10,2013-09-23 19:14:00,
2013-09-23 15:29:00,75.1,60.0,30.04,East,89,0.0,4.0,60,0.00,,,0.00,weatherlink.com 1.10,2013-09-23 19:29:00,
2013-09-23 15:44:00,75.3,60.0,30.03,NE,54,0.0,1.0,59,0.00,,,0.00,weatherlink.com 1.10,2013-09-23 19:44:00,
2013-09-23 15:59:00,75.2,59.0,30.03,SSE,163,0.0,6.0,57,0.00,,,0.00,weatherlink.com 1.10,2013-09-23 19:59:00,
2013-09-23 16:14:00,75.5,60.0,30.03,South,171,0.0,2.0,58,0.00,,,0.00,weatherlink.com 1.10,2013-09-23 20:14:00,
2013-09-23 16:29:00,74.8,58.0,30.03,East,86,0.0,2.0,56,0.00,,,0.00,weatherlink.com 1.10,2013-09-23 20:29:00,
2013-09-23 16:44:00,73.2,59.0,30.02,East,86,0.0,0.0,62,0.00,,,0.00,weatherlink.com 1.10,2013-09-23 20:44:00,
2013-09-23 16:59:00,73.0,59.0,30.03,East,86,0.0,1.0,61,0.00,,,0.00,weatherlink.com 1.10,2013-09-23 20:59:00,
2013-09-23 17:14:00,72.5,59.0,30.03,East,86,0.0,0.0,63,0.00,,,0.00,weatherlink.com 1.10,2013-09-23 21:14:00,
2013-09-23 17:29:00,72.1,59.0,30.02,East,86,0.0,1.0,63,0.00,,,0.00,weatherlink.com 1.10,2013-09-23 21:29:00,
2013-09-23 17:44:00,71.8,60.0,30.03,East,86,0.0,0.0,66,0.00,,,0.00,weatherlink.com 1.10,2013-09-23 21:44:00,
2013-09-23 17:59:00,71.1,60.0,30.03,East,86,0.0,0.0,67,0.00,,,0.00,weatherlink.com 1.10,2013-09-23 21:59:00,
2013-09-23 18:14:00,70.8,60.0,30.02,East,86,0.0,0.0,68,0.00,,,0.00,weatherlink.com 1.10,2013-09-23 22:14:00,
2013-09-23 18:29:00,70.2,62.0,30.02,East,86,0.0,0.0,75,0.00,,,0.00,weatherlink.com 1.10,2013-09-23 22:29:00,
2013-09-23 18:44:00,68.8,62.0,30.02,WNW,284,0.0,0.0,79,0.00,,,0.00,weatherlink.com 1.10,2013-09-23 22:44:00,
2013-09-23 18:59:00,67.6,62.0,30.02,WNW,284,0.0,0.0,82,0.00,,,0.00,weatherlink.com 1.10,2013-09-23 22:59:00,
2013-09-23 19:14:00,66.4,61.0,30.02,WNW,284,0.0,0.0,82,0.00,,,0.00,weatherlink.com 1.10,2013-09-23 23:14:00,
2013-09-23 19:29:00,65.3,60.0,30.03,WNW,284,0.0,0.0,83,0.00,,,0.00,weatherlink.com 1.10,2013-09-23 23:29:00,
2013-09-23 19:44:00,64.2,60.0,30.02,WNW,284,0.0,0.0,85,0.00,,,0.00,weatherlink.com 1.10,2013-09-23 23:44:00,
2013-09-23 19:59:00,63.3,59.0,30.02,WNW,284,0.0,0.0,86,0.00,,,0.00,weatherlink.com 1.10,2013-09-23 23:59:00,
2013-09-23 20:14:00,62.5,59.0,30.02,WNW,284,0.0,0.0,87,0.00,,,0.00,weatherlink.com 1.10,2013-09-24 00:14:00,
2013-09-23 20:29:00,61.9,58.0,30.03,WNW,284,0.0,0.0,88,0.00,,,0.00,weatherlink.com 1.10,2013-09-24 00:29:00,
2013-09-23 20:44:00,61.4,58.0,30.04,WNW,284,0.0,0.0,88,0.00,,,0.00,weatherlink.com 1.10,2013-09-24 00:44:00,
2013-09-23 20:59:00,60.9,57.0,30.04,WNW,284,0.0,0.0,88,0.00,,,0.00,weatherlink.com 1.10,2013-09-24 00:59:00,
2013-09-23 21:14:00,60.6,57.0,30.05,WNW,284,0.0,0.0,89,0.00,,,0.00,weatherlink.com 1.10,2013-09-24 01:14:00,
2013-09-23 21:29:00,60.4,58.0,30.04,WNW,284,0.0,0.0,90,0.00,,,0.00,weatherlink.com 1.10,2013-09-24 01:29:00,
2013-09-23 21:44:00,60.2,57.0,30.05,WNW,284,0.0,0.0,90,0.00,,,0.00,weatherlink.com 1.10,2013-09-24 01:44:00,
2013-09-23 21:59:00,59.9,57.0,30.05,WNW,284,0.0,0.0,90,0.00,,,0.00,weatherlink.com 1.10,2013-09-24 01:59:00,
2013-09-23 22:14:00,59.8,57.0,30.05,WNW,284,0.0,0.0,91,0.00,,,0.00,weatherlink.com 1.10,2013-09-24 02:14:00,
2013-09-23 22:29:00,59.4,57.0,30.06,WNW,284,0.0,0.0,91,0.00,,,0.00,weatherlink.com 1.10,2013-09-24 02:29:00,
2013-09-23 22:59:00,59.3,57.0,30.07,WNW,284,0.0,0.0,91,0.00,,,0.00,weatherlink.com 1.10,2013-09-24 02:59:00,
2013-09-23 23:14:00,59.7,57.0,30.07,WNW,284,0.0,0.0,92,0.00,,,0.00,weatherlink.com 1.10,2013-09-24 03:14:00,
2013-09-23 23:29:00,60.0,58.0,30.07,WNW,284,0.0,0.0,92,0.00,,,0.00,weatherlink.com 1.10,2013-09-24 03:29:00,
2013-09-23 23:44:00,60.3,58.0,30.07,WNW,284,0.0,0.0,92,0.00,,,0.00,weatherlink.com 1.10,2013-09-24 03:44:00,
2013-09-23 23:59:00,60.4,58.0,30.07,WNW,284,0.0,0.0,92,0.00,,,0.00,weatherlink.com 1.10,2013-09-24 03:59:00,